Wind_Speed
41 39 38 37 37 37 37 36 34 30 29 24 26 28 28 28 28 27 26 27 28 29 30 30 31 32 32 33 34 34 35 35 36 38 39 40 41 42 43 44 45 46 47 49
40 39 38 38 37 37 36 34 32 31 27 23 27 29 29 28 28 27 26 27 28 29 29 30 30 31 32 33 34 34 35 36 37 39 40 41 42 42 43 44 45 47 48 49
39 38 39 40 35 34 33 32 32 31 25 25 27 28 29 28 27 26 26 27 28 28 29 29 30 31 32 33 33 34 36 37 38 39 40 41 42 43 44 45 47 48 49 49
40 39 41 35 32 32 32 32 32 30 27 26 27 28 27 27 26 26 26 27 27 28 29 30 30 31 32 33 34 34 35 36 38 39 40 41 42 44 45 46 47 48 49 51
41 40 40 36 32 31 32 30 29 29 27 26 27 27 26 26 26 26 27 27 27 28 28 29 30 31 32 33 34 35 36 36 38 39 41 42 44 45 45 46 47 49 50 52
41 41 40 34 32 31 31 29 27 28 27 27 27 27 25 25 25 26 26 26 27 28 29 29 30 31 32 34 34 35 36 37 39 40 42 43 44 45 46 47 48 50 51 53
42 40 38 34 31 30 30 27 27 28 28 27 26 25 25 25 25 26 26 27 27 28 29 30 31 32 33 34 35 36 37 38 39 41 42 43 44 45 46 48 49 51 53 55
41 41 36 32 30 28 27 28 28 28 27 27 26 26 25 25 25 26 26 27 28 28 29 30 32 33 34 34 35 36 37 39 40 41 42 43 44 46 47 49 51 53 54 56
39 36 32 30 29 28 29 29 28 28 28 27 27 26 26 26 26 27 27 28 29 30 31 32 33 33 33 34 35 37 38 39 40 41 42 44 45 47 48 50 52 54 56 58
39 36 32 31 29 29 29 29 29 29 29 28 28 27 27 27 28 28 29 29 29 30 31 32 32 33 34 35 36 36 38 39 41 42 43 44 46 48 50 52 55 57 59 61
37 35 33 31 30 29 30 30 30 30 30 29 29 29 29 29 29 29 30 30 31 31 32 32 33 34 34 35 36 38 39 40 41 43 44 46 48 50 52 55 57 60 62 65
34 32 32 31 31 32 32 32 31 30 30 30 30 29 29 29 30 30 31 31 31 32 32 33 33 34 35 36 37 39 40 41 43 44 46 48 50 52 54 57 60 63 65 68
35 34 33 33 33 33 33 32 31 30 30 30 30 30 30 30 31 31 31 32 32 32 33 33 34 35 36 37 38 40 41 43 44 46 48 50 53 55 57 59 62 65 68 71
36 35 34 34 34 33 33 32 32 31 30 30 30 30 30 31 31 31 32 32 32 33 33 34 35 36 37 38 40 41 43 44 46 49 51 53 56 58 61 63 66 68 71 74
36 36 35 35 34 34 33 32 31 31 30 30 30 30 30 31 31 31 32 32 33 33 34 36 37 38 39 40 41 43 45 47 49 52 54 56 59 62 64 67 70 72 74 76
36 36 35 34 33 33 32 32 31 31 31 30 30 30 30 31 31 31 32 33 33 34 36 37 38 39 40 42 43 45 47 50 52 54 57 60 63 66 69 71 73 75 77 78
35 34 34 33 32 32 31 31 31 31 30 30 30 30 31 31 32 32 33 34 35 36 37 38 39 41 42 44 46 48 50 53 55 58 61 63 67 70 72 74 76 77 77 77
33 33 33 33 32 31 30 30 30 30 30 30 30 30 31 31 32 33 34 35 36 37 38 39 41 43 44 46 48 51 53 56 58 61 64 67 70 73 75 76 77 77 76 75
32 31 31 31 31 30 30 29 29 29 29 29 30 30 31 32 33 34 35 36 37 38 40 41 43 45 47 49 51 54 56 59 62 65 68 70 73 75 76 77 76 75 73 71
31 31 31 30 30 30 29 29 29 28 29 29 30 31 32 33 34 35 36 37 38 40 42 43 45 47 49 52 54 57 60 63 65 68 71 73 75 76 76 75 73 71 69 66
30 30 30 29 29 28 28 28 28 28 29 30 31 32 33 34 35 36 37 39 40 42 43 45 47 49 52 54 57 60 63 66 68 71 73 74 75 74 73 71 69 66 63 61
28 29 29 28 28 28 28 28 28 29 30 31 32 33 34 35 36 37 38 40 41 43 45 47 50 52 55 58 61 63 66 68 71 72 73 73 72 71 68 66 63 60 58 56
28 28 28 27 27 28 28 29 29 30 31 32 33 34 35 36 37 38 39 41 43 45 47 50 52 55 58 61 63 66 68 70 71 72 72 71 69 66 63 60 57 54 53 51
27 27 27 27 28 28 29 29 30 31 32 33 34 35 36 37 38 39 41 43 45 47 50 52 55 58 61 63 65 68 70 71 71 71 69 66 63 60 57 54 52 50 48 45
27 27 27 28 28 29 29 30 31 32 33 33 34 35 36 37 39 40 43 45 47 50 52 56 59 61 63 65 67 68 69 70 69 66 63 60 57 54 52 49 46 44 41 38
26 26 27 27 28 29 29 30 31 32 33 33 34 35 37 38 40 42 45 47 50 53 56 59 61 63 64 66 67 68 68 67 64 61 57 54 51 49 47 44 41 38 36 34
26 26 27 27 28 29 30 30 31 32 32 33 34 36 38 40 42 45 47 50 53 56 59 61 62 64 65 67 67 67 65 61 58 54 50 48 46 44 41 38 36 34 32 31
Wind_Direction
230 233 235 237 238 240 244 249 255 259 262 266 266 264 263 265 266 267 268 267 267 267 267 267 267 267 267 268 271 271 272 273 275 278 280 282 284 285 286 288 290 292 293 293
229 231 233 235 237 240 244 249 255 259 261 263 260 262 265 267 268 268 268 267 268 268 268 268 268 269 270 271 272 272 273 275 277 279 281 283 285 286 288 289 291 293 293 294
228 229 233 235 237 243 247 250 255 258 259 257 260 263 265 267 269 269 269 269 268 269 269 269 269 270 271 272 272 275 276 277 279 281 283 285 286 288 289 291 292 293 294 294
228 230 235 237 237 242 246 249 253 257 257 258 261 263 266 268 269 270 270 270 269 269 269 269 270 271 272 273 275 276 277 279 281 282 285 286 287 289 290 292 293 293 294 294
229 233 236 237 238 241 245 247 251 255 256 257 260 263 266 268 270 270 270 270 269 268 269 269 271 273 274 275 277 278 279 280 281 283 285 287 288 289 291 292 293 294 294 295
230 234 237 236 237 240 244 246 249 252 254 256 260 264 267 268 270 271 271 270 271 270 271 272 273 274 276 278 279 279 280 281 283 284 286 287 289 290 292 293 294 295 295 296
231 235 237 236 236 239 244 247 247 250 253 257 261 265 267 268 270 272 272 273 273 274 274 274 275 276 278 280 280 281 282 283 285 286 287 288 290 291 292 294 294 295 296 296
231 234 235 237 238 241 244 244 246 249 253 258 261 265 267 269 271 273 273 274 275 276 277 277 278 278 279 280 281 282 283 285 287 288 289 290 291 292 293 295 295 296 297 298
233 236 238 238 240 240 241 245 248 250 253 257 261 265 268 269 272 274 275 277 277 278 279 279 279 280 280 281 282 283 285 286 288 289 290 290 291 293 294 295 296 297 298 299
231 233 235 237 239 241 243 247 249 251 253 257 262 265 268 271 272 274 276 278 279 280 280 280 280 280 281 283 284 285 286 288 289 290 291 292 293 294 295 297 298 299 300 301
231 232 235 237 240 243 245 248 250 252 255 259 263 266 270 272 273 274 277 279 280 281 281 281 282 283 284 285 285 286 288 289 290 291 292 294 295 296 297 299 300 301 301 302
230 232 236 238 240 242 245 248 251 254 258 260 264 267 270 272 273 275 277 280 280 281 281 282 283 284 285 286 287 288 290 291 292 293 294 295 297 298 299 300 301 302 303 303
229 233 238 239 241 244 247 250 254 257 260 261 265 268 270 271 273 275 277 279 280 281 282 283 284 286 287 287 289 290 292 293 294 295 296 297 298 300 300 301 302 303 304 305
231 235 238 241 243 244 247 251 254 257 260 262 265 268 269 271 273 276 278 279 281 282 283 284 286 287 288 290 291 292 294 294 296 297 298 299 300 301 302 303 304 305 305 305
233 237 240 242 243 245 248 251 254 258 260 263 265 267 269 272 274 276 278 280 281 283 284 286 288 289 290 291 293 294 295 296 298 299 300 301 302 303 304 305 305 306 306 306
233 236 239 241 243 245 247 251 255 258 260 262 264 266 269 273 275 277 279 281 283 285 287 288 289 291 292 293 294 296 297 298 300 301 302 303 304 304 305 306 306 307 307 306
234 237 239 241 243 245 248 251 255 257 259 261 264 267 270 274 277 279 280 282 285 286 288 289 291 292 293 295 296 298 299 300 302 303 304 304 305 306 306 307 307 307 307 307
235 238 239 240 242 245 249 252 254 257 259 261 264 268 272 275 277 280 282 284 286 287 289 291 292 294 295 297 298 299 301 302 303 304 305 305 306 307 307 308 308 308 308 308
236 238 239 241 244 247 250 252 254 256 258 262 266 270 273 276 279 281 283 285 287 288 290 292 294 295 297 299 300 302 303 304 304 305 306 307 307 308 308 308 308 308 308 308
234 236 239 242 246 248 250 251 253 256 260 264 268 271 274 277 280 282 284 286 288 290 292 294 295 297 299 301 302 303 304 305 306 307 307 308 308 309 309 309 309 309 309 309
232 236 239 242 245 247 249 251 254 258 262 266 270 273 276 278 281 283 286 288 290 292 294 296 297 299 301 303 304 305 306 306 307 308 308 309 309 309 309 309 309 309 309 308
232 236 238 241 243 246 249 253 257 261 265 268 272 275 277 280 283 285 287 289 292 294 296 298 300 302 303 304 305 306 307 308 308 309 310 310 310 310 310 309 309 309 309 309
232 235 238 241 244 248 251 255 259 263 267 270 273 276 279 282 284 286 289 291 294 296 298 300 302 303 305 306 306 307 308 309 309 310 310 310 311 310 310 310 310 310 310 310
233 235 238 242 245 249 252 257 261 265 269 272 275 278 281 283 286 288 291 293 296 298 300 302 304 305 306 307 308 309 309 310 310 310 311 311 311 310 310 310 310 311 311 311
234 237 240 243 247 251 255 260 264 268 271 274 277 280 283 285 288 291 293 296 298 300 302 304 306 306 307 308 309 310 310 311 311 311 311 310 310 311 311 311 311 312 312 312
236 239 242 246 251 255 259 263 267 270 273 276 279 282 285 288 291 294 296 299 301 303 304 306 307 307 308 309 310 311 311 311 311 311 311 311 311 312 312 312 312 313 313 313
239 243 247 251 255 258 262 266 269 272 276 279 282 286 289 292 295 297 299 301 303 305 306 307 308 309 310 310 311 311 311 311 311 311 311 311 312 313 313 313 313 313 313 314
Height
5647 5652 5657 5660 5664 5666 5668 5671 5674 5677 5678 5681 5679 5679 5679 5679 5680 5681 5682 5682 5682 5682 5683 5683 5683 5683 5682 5682 5682 5682 5681 5680 5678 5677 5675 5673 5670 5668 5664 5661 5658 5654 5650 5645
5638 5642 5646 5649 5654 5657 5660 5663 5665 5668 5671 5673 5671 5670 5671 5672 5672 5673 5674 5674 5674 5674 5674 5674 5674 5674 5674 5673 5673 5672 5671 5670 5669 5667 5665 5662 5660 5657 5653 5650 5646 5642 5638 5633
5630 5634 5636 5639 5647 5650 5653 5656 5658 5659 5664 5664 5663 5663 5663 5664 5665 5666 5666 5667 5667 5667 5666 5666 5666 5666 5665 5664 5664 5663 5662 5660 5659 5657 5654 5652 5649 5646 5642 5638 5635 5630 5626 5621
5620 5624 5626 5637 5640 5642 5645 5648 5650 5652 5655 5655 5655 5655 5656 5657 5658 5658 5659 5659 5659 5659 5658 5658 5658 5657 5656 5655 5655 5653 5652 5650 5649 5646 5644 5641 5638 5634 5631 5627 5623 5618 5613 5608
5611 5615 5620 5627 5633 5635 5637 5640 5643 5644 5646 5647 5647 5648 5649 5650 5650 5651 5651 5651 5651 5650 5650 5650 5649 5648 5647 5646 5645 5644 5642 5640 5638 5636 5633 5630 5627 5623 5619 5615 5610 5606 5601 5596
5603 5607 5612 5622 5625 5627 5630 5633 5636 5636 5638 5639 5639 5641 5643 5643 5643 5643 5643 5643 5643 5642 5642 5641 5640 5639 5638 5637 5636 5634 5632 5630 5628 5625 5622 5619 5615 5611 5607 5603 5598 5593 5588 5582
5595 5599 5605 5612 5617 5619 5624 5628 5628 5628 5630 5631 5633 5634 5635 5635 5635 5635 5635 5635 5634 5634 5633 5633 5632 5630 5629 5627 5626 5624 5622 5619 5617 5614 5610 5607 5603 5599 5595 5590 5586 5581 5575 5569
5587 5591 5600 5605 5609 5613 5616 5617 5619 5620 5622 5624 5625 5626 5627 5627 5627 5627 5627 5627 5626 5625 5625 5624 5622 5621 5619 5617 5616 5613 5611 5609 5606 5602 5599 5595 5591 5587 5582 5578 5573 5567 5561 5555
5582 5590 5594 5598 5601 5604 5606 5609 5611 5613 5615 5617 5618 5618 5619 5619 5619 5619 5619 5618 5617 5617 5615 5614 5612 5611 5609 5607 5605 5603 5600 5597 5594 5591 5587 5583 5579 5575 5570 5564 5559 5553 5547 5541
5574 5580 5585 5589 5592 5595 5598 5601 5602 5605 5607 5609 5610 5610 5611 5611 5611 5610 5610 5609 5608 5607 5606 5604 5602 5601 5599 5597 5594 5592 5589 5586 5583 5579 5575 5571 5566 5562 5556 5550 5544 5538 5531 5524
5565 5572 5576 5580 5584 5587 5589 5592 5594 5597 5599 5600 5601 5602 5602 5602 5602 5601 5601 5600 5599 5598 5596 5594 5593 5591 5589 5586 5584 5581 5578 5574 5571 5567 5563 5558 5554 5548 5542 5536 5529 5522 5515 5507
5559 5565 5569 5573 5576 5578 5581 5583 5586 5588 5590 5591 5592 5593 5593 5593 5593 5592 5591 5590 5589 5588 5586 5584 5583 5580 5578 5575 5572 5569 5566 5562 5559 5554 5550 5545 5540 5535 5528 5521 5514 5506 5497 5489
5551 5555 5559 5563 5567 5569 5572 5575 5578 5580 5581 5582 5583 5584 5584 5584 5583 5583 5582 5580 5579 5578 5576 5574 5572 5570 5567 5564 5561 5558 5554 5550 5546 5542 5537 5531 5526 5520 5514 5507 5499 5490 5481 5471
5542 5547 5551 5555 5558 5561 5564 5567 5569 5571 5572 5573 5574 5574 5574 5574 5574 5573 5572 5571 5569 5568 5566 5564 5561 5559 5556 5553 5549 5546 5542 5538 5533 5528 5523 5517 5510 5504 5497 5490 5483 5474 5464 5452
5535 5539 5543 5546 5549 5552 5555 5558 5560 5561 5563 5564 5564 5565 5565 5564 5564 5563 5562 5561 5559 5557 5555 5553 5550 5548 5544 5541 5537 5533 5529 5524 5519 5514 5508 5501 5494 5487 5480 5472 5463 5455 5445 5434
5526 5530 5534 5537 5541 5544 5547 5549 5551 5553 5554 5555 5555 5555 5555 5555 5554 5553 5552 5551 5549 5547 5545 5542 5539 5536 5533 5529 5525 5520 5516 5510 5505 5499 5492 5485 5478 5470 5462 5453 5443 5434 5424 5413
5518 5522 5526 5529 5533 5535 5538 5540 5542 5543 5544 5545 5546 5546 5546 5545 5544 5543 5542 5540 5538 5536 5534 5531 5528 5524 5521 5517 5512 5507 5502 5496 5490 5483 5476 5468 5460 5451 5442 5433 5423 5413 5403 5391
5510 5514 5518 5521 5524 5527 5529 5531 5533 5534 5535 5536 5536 5536 5536 5535 5534 5533 5532 5530 5528 5525 5522 5519 5516 5512 5508 5504 5499 5493 5488 5482 5475 5467 5459 5451 5442 5432 5423 5412 5402 5391 5381 5371
5502 5506 5510 5513 5516 5518 5521 5523 5524 5525 5526 5527 5527 5527 5526 5526 5524 5523 5521 5519 5517 5514 5511 5507 5504 5500 5495 5490 5485 5479 5473 5466 5458 5450 5442 5433 5423 5413 5402 5392 5381 5370 5360 5351
5494 5498 5502 5505 5508 5510 5512 5514 5515 5516 5517 5518 5518 5517 5516 5515 5514 5512 5510 5508 5505 5502 5499 5495 5491 5486 5482 5476 5470 5464 5457 5449 5441 5433 5423 5414 5404 5393 5382 5371 5361 5351 5341 5332
5487 5491 5494 5497 5499 5501 5503 5505 5506 5507 5508 5508 5508 5507 5506 5505 5503 5502 5499 5497 5494 5490 5486 5482 5478 5473 5468 5462 5455 5448 5440 5432 5423 5414 5405 5394 5384 5373 5363 5352 5342 5333 5324 5315
5480 5483 5486 5488 5491 5493 5495 5496 5498 5498 5499 5498 5498 5497 5496 5494 5493 5490 5488 5485 5482 5478 5474 5469 5465 5459 5453 5446 5439 5431 5423 5414 5405 5395 5385 5375 5364 5354 5344 5334 5325 5316 5308 5299
5472 5475 5478 5480 5483 5484 5486 5487 5488 5489 5489 5488 5488 5487 5485 5484 5481 5479 5476 5473 5470 5466 5461 5456 5451 5444 5438 5430 5423 5414 5405 5396 5386 5376 5366 5356 5346 5336 5327 5318 5310 5301 5293 5286
5464 5467 5470 5472 5474 5476 5477 5478 5479 5479 5479 5478 5477 5476 5474 5473 5470 5467 5464 5461 5457 5453 5448 5442 5436 5429 5422 5414 5406 5397 5387 5378 5368 5358 5348 5338 5328 5319 5311 5303 5295 5288 5281 5274
5457 5459 5462 5464 5466 5467 5468 5469 5469 5469 5469 5468 5467 5465 5463 5461 5459 5456 5452 5449 5444 5439 5434 5427 5421 5413 5405 5397 5388 5379 5369 5359 5349 5340 5330 5322 5313 5305 5297 5290 5282 5276 5269 5263
5449 5452 5454 5456 5457 5458 5459 5459 5459 5459 5458 5457 5456 5454 5452 5450 5447 5444 5440 5436 5431 5425 5419 5412 5405 5397 5388 5380 5370 5361 5352 5342 5332 5323 5315 5307 5299 5292 5284 5277 5271 5265 5259 5254
5442 5444 5446 5447 5448 5449 5450 5450 5450 5449 5448 5447 5445 5443 5441 5438 5435 5431 5427 5422 5416 5410 5403 5396 5388 5380 5371 5362 5353 5343 5334 5325 5317 5309 5301 5294 5287 5280 5274 5267 5261 5256 5251 5246